Location: Tierra Monte Subdivision
(35.2092°N, 106.4864°W)
Time: 22:57:35
(UTC+00:00)

Meteor 1-16 Rocket - Pass Details

Date: 30 March 2020
Orbit: 790 x 907 km, 81.2° (Epoch: 05 June)

Event Time Altitude Azimuth Distance (km) Brightness Sun altitude
Exits shadow 03:41:50 62° 24° (NNE) 899 4.2 -27.4°
Drops below altitude 10° 03:46:20 10° 11° (N) 2,402 6.7 -28.2°
Sets 03:48:45 0° 10° (N) 3,353 7.5 -28.7°
